Location: Ballston Manor
(42.9858°N, 73.8628°W)
Time: 04:57:27
(UTC+00:00)

Daily predictions for brighter satellites

Satellite Brightness Start Highest point End
(mag) Time Altitude Azimuth Time Altitude Azimuth Time Altitude Azimuth
Aureole 3 4.3 00:02:14 10° SSE 00:06:09 37° E 00:11:02 10° NNE
GEOS 3 Rocket 4.4 00:01:50 10° SSE 00:06:49 52° WSW 00:11:54 10° NW
STARLINK-1119 4.0 00:04:31 10° NW 00:08:36 53° NNE 00:12:10 13° ESE
Cosmos 1943 Rocket 2.5 00:03:56 10° NNW 00:09:18 47° ENE 00:14:39 10° SE
ARGOS Delta rocket 4.1 00:04:49 10° SSE 00:09:57 74° ENE 00:15:22 10° N
SJ-6B 3.6 00:06:57 10° SE 00:10:43 36° ENE 00:14:31 10° N
STARLINK-1114 3.9 00:09:31 10° NW 00:13:36 57° NNE 00:16:58 15° ESE
Cosmos 2084 Rocket 3.7 00:13:29 10° NNW 00:17:55 57° NE 00:21:38 14° SE
MONITOR-E 4.1 00:15:53 10° SSE 00:18:23 45° ENE 00:20:56 10° N
STARLINK-1130 (DARKSAT) 3.8 00:14:29 10° NW 00:18:35 61° NNE 00:21:44 16° ESE
SL-14 R/B 3.8 00:14:56 10° NNW 00:18:57 64° W 00:22:54 10° S
Cosmos 1758 3.3 00:15:40 10° S 00:19:45 80° E 00:23:51 10° N
Cosmos 1437 4.2 00:18:32 10° NNE 00:20:39 17° ENE 00:21:09 17° E
FREGAT/IRIS 2.3 00:18:52 10° SSE 00:21:33 61° ENE 00:24:15 10° N
Cosmos 1943 3.7 00:17:33 10° SSE 00:22:35 35° ESE 00:27:40 10° NE
H-2A R/B 4.1 00:11:25 10° W 00:22:40 21° SW 00:26:33 10° S
CZ-4 R/B 4.3 00:20:21 10° SW 00:23:01 18° W 00:25:41 10° NW
STARLINK-1084 3.7 00:19:27 10° NW 00:23:35 66° NNE 00:26:31 18° ESE
Cosmos 292 Rocket 4.0 00:21:10 10° N 00:25:52 52° ENE 00:29:55 14° SE
STARLINK-1098 3.6 00:24:25 10° NW 00:28:34 71° NE 00:31:18 20° ESE
ISS -3.3 00:26:16 10° NW 00:29:34 51° NNE 00:31:25 23° E
IRIDIUM 114 4.5 00:25:44 10° N 00:30:51 53° E 00:35:56 10° SSE
Ariane Rocket 3.2 00:27:30 10° S 00:32:34 75° WSW 00:37:38 10° NNW
BREEZE-M DEB (TANK) 2.5 00:26:38 10° WSW 00:33:17 72° NNW 00:35:32 14° ENE
STARLINK-1123 3.6 00:29:24 10° NW 00:33:33 77° NE 00:36:06 23° ESE
Aureole 2 Rocket 2.5 00:31:29 10° NNW 00:34:56 55° ENE 00:36:50 23° SE
SL-4 R/B 2.9 00:33:10 10° S 00:35:25 21° SE 00:35:25 21° SE
Meteor 2-15 Rocket 4.4 00:29:50 10° S 00:35:54 83° E 00:42:00 10° N
STARLINK-1097 3.6 00:34:21 10° NW 00:38:30 84° NNE 00:40:52 25° ESE
MOS 1 4.3 00:32:56 10° SSE 00:38:35 90° NNW 00:44:17 10° NNW
Abrixas rocket 3.1 00:37:11 10° W 00:40:00 39° NNW 00:42:03 16° NE
IRIDIUM 103 4.3 00:34:51 10° N 00:40:03 64° E 00:45:13 10° SSE
SL-16 R/B 3.8 00:37:53 10° SW 00:43:08 38° WNW 00:48:24 10° N
Resurs 01 Rocket 2.5 00:41:45 24° ESE 00:43:18 30° ENE 00:47:10 10° N
STARLINK-1099 3.5 00:39:20 10° NW 00:43:30 90° WNW 00:45:39 27° SE
SPOT 3 Rocket 3.6 00:39:41 14° SSE 00:44:05 59° ENE 00:49:12 10° N
NOSS 3-3 (A) 3.8 00:40:17 10° SSW 00:46:03 77° ESE 00:52:33 10° NE
NOSS 3-3 (C) 3.8 00:40:24 10° SSW 00:46:09 77° ESE 00:52:39 10° NE
Cosmos 2184 Rocket 4.1 00:40:10 10° N 00:46:24 58° ENE 00:51:48 14° SSE
STARLINK-1104 3.6 00:44:20 10° NW 00:48:29 83° SW 00:50:27 30° SE
CZ-2C R/B 3.7 00:43:56 10° NNE 00:48:40 67° ESE 00:53:17 10° S
SL-8 R/B 3.9 00:44:56 10° WNW 00:49:42 65° NNE 00:52:09 28° E
Cosmos 2058 Rocket 4.3 00:51:54 24° E 00:51:54 24° E 00:55:10 10° NE
Meteor 1-21 Rocket 4.1 00:46:27 10° N 00:52:02 89° ENE 00:57:34 10° S
Cosmos 1726 2.0 00:48:43 10° S 00:52:26 70° E 00:56:10 10° NNE
STARLINK-1144 3.6 00:49:18 10° WNW 00:53:27 77° SW 00:55:13 33° SE
CZ-2C R/B 3.4 00:50:45 10° S 00:55:42 60° W 01:00:29 10° NNW
Cosmos 1953 2.6 00:54:01 10° SSW 00:57:57 69° W 01:01:56 10° N
IRIDIUM 106 4.3 00:53:05 10° N 00:58:20 87° W 01:03:33 10° S
STARLINK-1103 3.7 00:54:18 10° WNW 00:58:25 70° SW 01:00:00 36° SE
Cosmos 967 Rocket 4.5 00:52:42 10° SSW 00:59:08 84° ESE 01:05:40 10° NNE
CZ-2C R/B 2.6 00:54:44 10° NNE 00:59:47 51° E 01:04:44 10° S
Cosmos 1818 3.6 00:55:37 10° SSW 01:00:53 55° ESE 01:06:13 10° NE
Cosmos 1703 3.6 00:57:54 10° N 01:01:43 45° ENE 01:02:12 42° E
Cosmos 1656 Rocket 4.1 00:57:17 10° NNW 01:02:45 47° ENE 01:04:49 33° ESE
STARLINK-1101 3.8 00:59:17 10° WNW 01:03:24 64° SW 01:04:47 38° SSE
ARGOS 3.7 00:58:29 10° S 01:03:47 57° W 01:09:07 10° NNW
Cosmos 1603 3.7 00:59:33 10° SSW 01:05:11 84° WNW 01:10:51 10° NNE
MetOp-A 4.1 01:03:38 19° SSE 01:07:32 87° ENE 01:12:56 10° NNW
SL-08 RB Rocket 4.0 01:03:35 13° S 01:07:34 65° W 01:12:08 10° NNW
Cosmos 2154 Rocket 4.1 01:01:52 10° N 01:08:07 55° ENE 01:11:13 30° SE
STARLINK-1102 3.9 01:04:18 10° WNW 01:08:23 58° SW 01:09:36 40° SSE
Meteor 1-16 Rocket 4.0 01:05:32 10° S 01:10:52 87° E 01:16:24 10° N
Cosmos 407 Rocket 3.9 01:10:48 38° ESE 01:10:53 38° ESE 01:15:37 10° NE
ATLAS 2AS CENTAUR R/B 3.3 01:03:52 10° NNW 01:11:11 46° NE 01:14:19 30° E
MOS 1 Rocket 3.5 01:06:32 10° NNE 01:11:52 71° E 01:17:17 10° S
Cosmos 1726 Rocket 3.5 01:10:34 36° SSE 01:12:11 62° E 01:16:34 10° NNE
USA 234 3.1 01:06:42 10° NE 01:13:15 76° SE 01:19:48 10° SW
STARLINK-1111 4.1 01:09:17 10° WNW 01:13:20 53° SW 01:14:22 41° S
Cosmos 614 Rocket 4.1 01:10:28 21° S 01:13:41 49° ESE 01:18:44 10° NNE
Nadezhda 1 Rocket 4.0 01:08:39 10° S 01:14:59 69° E 01:21:20 10° NNE
SL-24 R/B 4.3 01:12:06 10° N 01:16:22 64° WNW 01:20:11 10° SSW
Cosmos 1992 Rocket 4.4 01:12:57 10° NNW 01:18:05 59° WSW 01:21:25 21° S
STARLINK-1073 4.2 01:14:17 10° WNW 01:18:17 48° SW 01:19:08 41° S
Cosmos 1825 Rocket 3.6 01:15:03 10° N 01:19:28 79° W 01:21:15 35° S
Terra 4.0 01:21:05 12° NE 01:21:05 12° NE 01:22:08 10° NE
H-2A R/B 3.7 01:17:46 10° SSW 01:22:27 32° W 01:27:03 10° NNW
STARLINK-1121 4.3 01:19:18 10° WNW 01:23:15 44° SW 01:23:56 40° SSW
Cosmos 1908 3.1 01:26:59 80° SSW 01:27:11 89° WNW 01:31:05 10° N
ERS-1 Rocket 4.3 01:28:06 24° NE 01:28:06 24° NE 01:31:36 10° NNE
STARLINK-1106 4.4 01:24:18 10° WNW 01:28:11 40° SW 01:28:42 38° SSW
Cosmos 1758 Rocket 4.4 01:26:37 10° NNW 01:30:48 48° W 01:33:02 24° SSW
Cosmos 1953 Rocket 3.7 01:33:29 10° NNW 01:37:58 75° W 01:38:41 60° SSW
Cosmos 1606 Rocket 4.3 01:36:20 14° SSW 01:40:03 51° WNW 01:44:25 10° N
Cosmos 2369 Rocket 3.3 01:38:53 10° NW 01:44:10 40° WSW 01:47:08 23° SSW
Meteor 1-11 4.2 01:41:31 10° NNW 01:47:19 83° W 01:48:49 52° S
Cosmos 2228 4.1 01:46:33 18° SW 01:49:20 42° WNW 01:53:28 10° N
Cosmos 921 Rocket 4.2 01:45:21 10° N 01:47:56 31° NNE 01:47:56 31° NNE
Cosmos 1943 Rocket 4.0 01:48:15 10° NW 01:52:42 25° WSW 01:56:28 13° SSW
Aureole 1 Rocket 4.4 01:52:34 10° SSW 02:00:36 78° WNW 02:07:05 10° NNE
ISS -0.9 02:03:30 10° W 02:04:24 15° W 02:04:24 15° W
APEX 4.1 01:59:52 10° NNW 02:06:33 88° ENE 02:06:44 85° SE
SL-24 R/B - RUBIN 2 4.4 02:08:56 60° NE 02:08:56 60° NE 02:14:02 10° NE
Landsat 7 4.4 02:16:42 53° NNW 02:16:42 53° NNW 02:20:20 10° NNW
Cosmos 1340 Rocket 4.5 02:17:01 33° NW 02:17:01 33° NW 02:19:47 10° N
Cosmos 2341 Rocket 4.0 02:12:18 10° N 02:18:41 77° W 02:19:21 70° SSW
Resurs 01 Rocket 3.4 02:19:19 25° WSW 02:19:46 26° W 02:23:29 10° NW
Cosmos 1190 Rocket 4.4 02:19:53 61° W 02:20:07 61° WNW 02:25:23 10° NNE
USA 245 4.5 02:23:51 61° W 02:23:51 61° W 02:29:37 10° NNW
Spot 2 Rocket 4.1 02:24:21 53° W 02:24:21 53° W 02:29:02 10° NNW
SPOT 5 4.4 02:27:54 26° N 02:27:54 26° N 02:29:54 10° N
BREEZE M DEB (TANK) 4.4 02:23:06 10° WSW 02:28:44 41° WNW 02:28:44 41° WNW
NOSS 3-4 (A) 3.8 02:22:45 10° NW 02:29:51 76° WSW 02:30:24 72° SSW
NOSS 3-4 (C) 3.8 02:22:51 10° NW 02:29:57 77° WSW 02:30:30 73° SSW
Cosmos 1140 Rocket 4.2 02:32:44 50° NNW 02:32:44 50° NNW 02:37:02 10° NNE
COSMOS 2455 3.1 02:31:44 10° NNW 02:36:47 63° NNW 02:36:47 63° NNW
Cosmos 2218 Rocket 4.1 02:34:24 10° N 02:39:49 69° NNW 02:39:49 69° NNW
Cosmos 2181 Rocket 4.4 02:50:54 57° WNW 02:50:54 57° WNW 02:56:58 10° N
Cosmos 1980 Rocket 4.4 02:52:12 10° N 02:54:31 15° NE 02:54:31 15° NE
USA 234 4.3 02:49:56 10° NE 02:55:59 41° NNW 03:02:01 10° W
Terra 3.7 02:59:57 27° NNW 02:59:57 27° NNW 03:02:08 10° NNW
ATLAS 2AS CENTAUR R/B 3.5 02:55:10 10° NW 03:01:46 44° WSW 03:01:46 44° WSW
CZ-4C R/B 3.9 03:39:53 10° NNW 03:45:52 36° NNE 03:45:52 36° NNE
Cosmos 1980 Rocket 4.4 04:34:40 10° NNW 04:36:17 20° NNW 04:36:17 20° NNW
Cosmos 2082 Rocket 4.4 05:04:36 20° N 05:04:36 20° N 05:06:24 10° NNE
CZ-4C R/B 4.4 05:28:07 10° NW 05:31:02 27° NW 05:31:02 27° NW
Cosmos 2333 Rocket 4.0 06:11:28 10° N 06:15:41 27° NE 06:15:41 27° NE
Cosmos 2360 Rocket 4.3 06:11:36 10° NNW 06:13:20 20° NNW 06:13:20 20° NNW
SJ 16-02 4.3 06:29:08 13° NE 06:29:08 13° NE 06:29:47 10° NE
SL-16 R/B 3.6 06:41:20 39° NNW 06:41:20 39° NNW 06:45:04 10° NNW
ADEOS II 3.8 06:40:35 10° NNE 06:43:52 28° ENE 06:43:52 28° ENE
Resurs 1-4 Rocket 3.6 06:42:22 10° NNE 06:45:08 32° NNE 06:45:08 32° NNE
Lacrosse 5 rocket 4.4 06:56:34 12° NE 06:56:34 12° NE 06:56:51 10° NE
CZ-2D R/B 3.4 06:52:08 10° N 06:55:23 37° N 06:55:23 37° N
Cosmos 2219 Rocket 3.1 07:13:15 10° NNW 07:16:50 40° N 07:16:50 40° N
COSMOS 2428 3.4 07:14:18 10° NNW 07:18:31 49° N 07:18:31 49° N
Cosmos 2227 Rocket 4.2 07:19:47 18° ESE 07:21:18 20° E 07:25:18 10° NE
USA 267 3.1 07:21:39 10° NE 07:28:14 87° SE 07:28:21 85° S
BREEZE-M DEB (TANK) 4.3 07:34:30 71° ENE 07:34:30 71° ENE 07:44:06 10° ESE
Meteor 1-27 Rocket 3.8 07:45:06 65° NNW 07:45:06 65° NNW 07:50:10 10° N
ARIANE 5 R/B 2.6 07:42:31 10° NNE 07:47:29 79° NE 07:47:29 79° NE
Timation 2 Rocket 4.0 07:56:29 64° WSW 07:57:27 74° WNW 08:04:22 10° NNE
BREEZE-M DEB (TANK) 3.9 07:58:33 45° NNW 07:58:35 45° N 08:03:44 10° ENE
Meteor 1-11 Rocket 4.5 07:54:49 10° NNW 07:59:07 41° NW 07:59:07 41° NW
Cosmos 2333 Rocket 3.6 07:55:20 10° NW 07:57:37 24° NW 07:57:37 24° NW
Cosmos 1703 Rocket 4.0 08:01:00 55° ESE 08:01:16 56° E 08:05:40 10° NNE
USA 234 3.6 07:55:34 10° ESE 08:02:01 65° NE 08:08:28 10° NW
STARLINK-1009 4.3 08:03:00 52° NE 08:03:00 52° NE 08:06:15 10° NE
CZ-2C R/B 3.5 07:58:57 10° NNE 08:02:43 52° E 08:02:43 52° E
SJ 16-02 3.0 08:06:07 24° NNW 08:06:07 24° NNW 08:08:30 10° N
STARLINK-1015 4.1 08:07:47 56° NNE 08:07:47 56° NNE 08:11:14 10° NE
COBE Rocket 4.4 08:04:56 18° SSE 08:08:22 56° ENE 08:13:01 10° N
STARLINK-81 4.1 08:10:14 54° NNE 08:10:14 54° NNE 08:13:34 10° NE
CZ-4B R/B 3.5 08:08:01 15° ESE 08:10:16 29° ENE 08:13:20 10° N
STARLINK-54 4.1 08:12:00 53° N 08:12:00 53° N 08:15:24 10° NE
NOSS 3-2 (A) 3.9 08:09:47 35° SSE 08:11:45 50° ESE 08:17:49 10° NE
STARLINK-1016 4.0 08:12:34 58° N 08:12:34 58° N 08:16:12 10° NE
STARLINK-77 4.0 08:13:25 56° N 08:13:25 56° N 08:16:52 10° NE
STARLINK-25 4.0 08:15:00 56° N 08:15:00 56° N 08:18:31 10° NE
Cosmos 1743 3.0 08:11:19 10° N 08:14:52 65° NE 08:14:52 65° NE
STARLINK-71 4.1 08:16:48 52° N 08:16:48 52° N 08:20:22 10° NE
H-2A R/B 3.6 08:19:12 23° NW 08:19:12 23° NW 08:20:59 10° NNW
STARLINK-1008 3.9 08:17:20 58° N 08:17:20 58° N 08:21:10 10° NE
STARLINK-79 4.0 08:18:11 56° N 08:18:11 56° N 08:21:49 10° NE
Okean 1-7 3.1 08:17:21 65° SSE 08:17:53 74° E 08:22:16 10° NNE
Cosmos 2237 Rocket 2.2 08:13:29 10° NNW 08:19:11 80° ENE 08:24:53 10° SSE
STARLINK-78 3.9 08:19:47 55° N 08:19:47 55° N 08:23:28 10° NE
BREEZE-M DEB (TANK) 3.1 08:20:03 40° SE 08:20:03 40° SE 08:22:08 10° ENE
FALCON 9 DEB 4.2 08:19:42 43° NNE 08:19:45 44° NNE 08:23:04 10° ESE
STARLINK-57 4.0 08:21:28 52° NNW 08:21:28 52° NNW 08:25:14 10° NE
Cosmos 1908 Rocket 3.7 08:17:01 10° NNW 08:20:45 59° NW 08:20:45 59° NW
STARLINK-49 3.9 08:22:58 54° NNW 08:22:58 54° NNW 08:26:47 10° NE
STARLINK-1035 4.5 08:24:06 38° SSE 08:24:25 39° SE 08:28:18 10° ENE
STARLINK-27 3.9 08:24:33 52° NNW 08:24:33 52° NNW 08:28:26 10° NE
ADEOS II 2.9 08:20:18 10° N 08:24:49 33° WNW 08:24:49 33° WNW
Cosmos 1937 Rocket 4.0 08:25:27 40° WNW 08:25:35 40° WNW 08:30:30 10° N
Cosmos 1634 Rocket 3.8 08:19:55 10° NNW 08:26:04 72° W 08:29:46 25° S
STARLINK-74 3.9 08:26:07 51° NNW 08:26:07 51° NNW 08:30:03 10° NE
Tsikada Rocket 4.3 08:25:30 42° WSW 08:26:30 45° WNW 08:32:40 10° N
Resurs 1-4 Rocket 4.2 08:24:24 10° NNW 08:26:13 13° NW 08:26:13 13° NW
STARLINK-1025 4.0 08:26:55 52° NW 08:27:02 52° NNW 08:31:06 10° NE
STARLINK-39 4.0 08:27:43 50° NNW 08:27:47 50° NNW 08:31:43 10° NE
CZ-2D R/B 3.8 08:24:25 10° N 08:28:14 50° NW 08:28:14 50° NW
STARLINK-1032 4.3 08:28:53 41° SSE 08:29:23 43° SE 08:33:19 10° ENE
STARLINK-31 4.0 08:29:20 48° NW 08:29:27 49° NNW 08:33:23 10° NE
CENTAUR R/B 3.7 08:25:58 15° S 08:30:12 35° ESE 08:36:08 10° NE
STARLINK-69 4.1 08:31:04 44° NW 08:31:18 45° NNW 08:35:11 10° NE
STARLINK-1017 4.0 08:31:42 47° NW 08:32:02 49° NNW 08:36:04 10° NE
Lacrosse 5 rocket 3.0 08:32:12 20° NNW 08:32:36 20° NNW 08:35:34 10° NNE
STARLINK-21 4.1 08:32:32 45° NW 08:32:48 46° NNW 08:36:42 10° NE
deb Chang Zheng 4 3.5 08:29:42 10° NNE 08:34:02 85° ESE 08:35:20 45° S
STARLINK-1011 4.2 08:33:40 43° SSE 08:34:20 47° SE 08:38:19 10° ENE
STARLINK-45 4.2 08:34:17 41° NW 08:34:41 42° NNW 08:38:32 10° NE
STARLINK-1010 4.4 08:35:25 38° NW 08:36:05 41° NNW 08:40:07 10° NE
STARLINK-70 4.2 08:35:49 41° NW 08:36:16 42° NNW 08:40:07 10° NE
CZ-2D R/B 4.3 08:34:54 10° NW 08:36:42 12° NW 08:36:42 12° NW
Sich 1 Rocket 3.9 08:32:31 10° N 08:36:54 64° E 08:41:14 10° SSE
STARLINK-76 4.2 08:37:17 41° NW 08:37:47 43° NNW 08:41:39 10° NE
ATLAS CENTAUR R/B 3.2 08:39:53 16° E 08:39:53 16° E 08:40:37 10° ENE
Cosmos 2297 Rocket 2.1 08:36:42 37° SSW 08:39:04 84° WNW 08:44:47 10° NNE
Cosmos 372 Rocket 3.9 08:37:34 44° SW 08:39:11 69° WNW 08:44:25 10° NNE
STARLINK-1036 4.1 08:38:27 43° S 08:39:18 52° SE 08:43:20 10° ENE
STARLINK-23 4.2 08:38:53 39° NW 08:39:27 42° NNW 08:43:18 10° NE
NOSS 3-2 (C) 4.0 08:36:33 21° S 08:40:14 50° ESE 08:46:19 10° NE
Cosmos 2219 3.3 08:38:46 40° SW 08:40:43 63° WNW 08:46:27 10° NNE
STARLINK-32 4.3 08:40:28 38° NW 08:41:07 41° NNW 08:44:57 10° NE
Cosmos 2142 Rocket 4.4 08:35:12 10° NNW 08:41:34 74° W 08:47:49 10° S
Gblst 52 Del rocket 4.2 08:37:25 19° WNW 08:41:55 60° SW 08:47:28 10° SE
Cosmos 1689 Rocket 4.0 08:39:56 10° SE 08:42:39 32° ENE 08:45:23 10° N
STARLINK-40 4.3 08:42:03 37° NW 08:42:46 40° NNW 08:46:36 10° NE
Okean 2 Rocket 4.2 08:39:04 10° N 08:43:24 45° ENE 08:47:44 10° SSE
OE (NEXTSAT) 4.2 08:43:20 81° WSW 08:43:26 83° SSW 08:46:56 10° ESE
STARLINK-1044 3.9 08:43:14 43° S 08:44:15 57° SE 08:48:20 10° ENE
STARLINK-44 4.3 08:43:38 35° NW 08:44:25 39° NNW 08:48:14 10° NE
STARLINK-37 4.5 08:45:21 33° NW 08:46:14 37° NNW 08:50:01 10° NE
STARLINK-1048 4.4 08:46:02 34° WNW 08:47:02 40° NNW 08:50:58 10° NE
IDEFIX/ARIANE 42P 2.5 08:42:25 10° N 08:47:34 67° WNW 08:50:06 30° SSW
STARLINK-36 4.4 08:46:49 33° WNW 08:47:45 38° NNW 08:51:32 10° NE
STARLINK-1047 3.8 08:48:00 41° SSW 08:49:12 63° SE 08:53:19 10° ENE
NOSS 0 Rocket 4.2 08:43:35 10° NW 08:49:20 43° WSW 08:55:04 10° S
STARLINK-1037 3.8 08:49:25 41° SSW 08:50:40 65° SE 08:54:47 10° ENE
BREEZE M DEB (TANK) 1.7 08:53:11 82° E 08:53:11 82° E 08:56:15 10° ENE
Okean 1 3.7 08:53:27 40° W 08:53:39 40° WNW 08:57:26 10° N
Cosmos 1048 Rocket 4.0 08:48:59 10° NNW 08:54:21 89° ENE 08:59:43 10° SSE
CZ-2C R/B 3.0 08:50:10 10° NNE 08:54:39 50° E 08:59:04 10° S
Cosmos 1300 Rocket 4.5 08:51:25 10° N 08:55:37 48° ENE 08:59:47 10° SSE
Cosmos 1544 3.0 08:53:02 10° N 08:56:41 89° E 09:00:20 10° S
STARLINK-29 2.8 08:56:19 44° WNW 08:57:14 84° SW 09:00:29 10° SE
SeaSat 1 2.8 08:52:28 10° SE 08:57:21 67° ENE 09:02:16 10° NNW
Cosmos 2298 Rocket 4.2 08:55:59 31° SW 08:58:17 53° WNW 09:03:31 10° NNE
STARLINK-1059 3.6 08:57:36 36° SW 08:59:11 75° SE 09:03:19 10° ENE
Cosmos 2150 Rocket 4.2 08:56:58 29° SW 08:59:34 57° WNW 09:04:58 10° NNE
Cosmos 1125 Rocket 3.5 08:57:17 19° SSW 09:01:13 90° NW 09:06:34 10° NNE
Cosmos 1975 2.8 08:58:48 10° NNW 09:02:45 57° W 09:06:19 12° S
STARLINK-1057 3.6 09:02:22 33° SW 09:04:08 82° SE 09:08:18 10° NE
Cosmos 2227 Rocket 2.3 09:01:38 26° SW 09:04:50 60° WNW 09:10:26 10° NNE
Cosmos 389 Rocket 2.4 09:03:12 19° S 09:05:38 86° E 09:09:13 10° N
Geosat 4.0 09:02:13 10° NNE 09:07:13 67° WNW 09:10:33 21° SW
STARLINK-1034 3.5 09:07:08 30° SW 09:09:06 88° SE 09:13:15 10° NE
USA 267 4.1 09:04:55 10° NE 09:10:50 38° NNW 09:15:42 15° W
PSLV R/B 3.6 09:07:40 10° N 09:11:59 63° WNW 09:15:24 16° SSW
ADEOS 3.6 09:06:47 10° NNE 09:12:02 87° ESE 09:17:16 10° SSW
STARLINK-1068 3.5 09:11:56 27° WSW 09:14:06 85° NNW 09:18:15 10° NE
STARLINK-1027 3.7 09:15:23 25° WSW 09:17:47 77° NW 09:22:03 10° NE
PSLV R/B 4.5 09:14:38 10° SSE 09:18:47 64° ENE 09:22:58 10° N
Okean 3 3.4 09:15:11 12° SSW 09:19:00 65° W 09:23:10 10° N
Nadezhda 4 Rocket 4.0 09:12:45 10° S 09:19:04 88° W 09:25:28 10° N
Cosmos 2279 Rocket 4.3 09:13:39 10° NNW 09:19:32 45° W 09:25:24 10° SSW
Cosmos 1980 4.4 09:15:35 10° NW 09:20:28 30° WSW 09:25:19 10° SSW
ATLAS 3B R/B 3.5 09:16:17 10° S 09:22:40 49° ESE 09:29:00 10° NE
STARLINK-1060 3.6 09:21:30 22° WSW 09:24:03 73° NNW 09:28:12 10° NE
ARIANE 5 R/B 4.3 09:23:27 10° NNW 09:26:09 14° WNW 09:27:50 13° W
MSX 4.1 09:21:01 10° N 09:26:33 48° WNW 09:32:03 10° SW
STARLINK-1030 3.7 09:26:16 20° WSW 09:29:02 67° NNW 09:33:10 10° NE
STARLINK-1031 3.8 09:26:43 20° WSW 09:29:29 61° NNW 09:33:37 10° NE
STARLINK-1020 3.8 09:31:04 18° WSW 09:34:01 62° NNW 09:38:09 10° NE
ALOS 3.8 09:29:56 10° NNE 09:34:18 38° E 09:38:38 10° SSE
USA 238 DEB 4.0 09:30:07 15° WSW 09:35:27 49° NW 09:42:10 10° NNE
USA 238 4.0 09:30:10 15° WSW 09:35:33 50° NW 09:42:18 10° NNE
SL-16 R/B 2.2 09:30:44 10° NNW 09:36:21 67° WSW 09:41:57 10° SSE
STARLINK-52 3.5 09:35:27 13° WNW 09:38:04 37° SW 09:41:03 10° SSE
Cosmos 2082 3.9 09:33:15 11° SW 09:38:41 54° WNW 09:44:19 10° NNE
STARLINK-1052 3.9 09:35:50 16° WSW 09:39:00 58° NNW 09:43:06 10° NE
Okean 1 Rocket 3.8 09:38:01 10° N 09:42:19 58° E 09:46:38 10° SSE
CZ-4B R/B 3.0 09:41:13 14° WSW 09:42:37 17° W 09:44:59 10° NW
USA 234 3.7 09:39:10 10° SSE 09:45:13 40° SW 09:51:17 10° WNW
Meteor 1-31 Rocket 2.8 09:42:13 10° NNE 09:46:11 87° WNW 09:50:06 10° SSW
Cosmos 1818 3.8 09:42:00 10° NNW 09:47:29 75° NE 09:52:54 10° SE
STARLINK-1033 4.1 09:45:24 13° WSW 09:49:00 50° NNW 09:53:02 10° NE
CZ-4B R/B 3.2 09:47:29 10° NNE 09:51:45 81° ESE 09:56:10 10° S
STARLINK-1038 4.4 09:51:36 10° SSW 09:55:35 49° SE 09:59:37 10° ENE
FALCON 9 DEB 4.3 09:53:45 10° WNW 09:56:39 25° SW 09:59:31 10° S
COSMO-SKYMED 1 3.2 09:52:28 10° SSE 09:56:45 62° ENE 10:01:03 10° N
STARLINK-1024 4.3 09:55:02 10° W 09:59:00 44° NNW 10:02:59 10° NE
STARLINK-1046 4.2 09:56:30 10° SW 10:00:32 54° SE 10:04:36 10° ENE
ATLAS 5 CENTAUR R/B 1.5 09:55:43 10° SW 10:00:33 75° SE 10:02:48 10° NE
Cosmos 2237 Rocket 3.7 09:59:32 10° WNW 10:02:28 14° W 10:05:25 10° SW
NOSS 3-2 (A) 4.3 09:57:30 10° WSW 10:02:49 35° NW 10:08:50 10° NNE
STARLINK-1035 4.4 10:00:04 10° W 10:04:00 41° NNW 10:07:57 10° NE
STARLINK-1039 4.1 10:01:27 10° SW 10:05:31 60° SE 10:09:37 10° ENE
